QPF
0.00 0.00 0.00 0.01 0.01 0.01 0.00 0.00 0.00 0.00 0.00 0.00 0.00 0.00 0.00 0.00 0.00 0.00 0.00 0.00 0.00 0.00 0.00 0.00 0.00 0.00 0.00 0.00 0.00 0.00 0.00 0.00 0.00 0.00 0.00 0.00 0.00 0.00 0.00 0.00 0.00 0.00 0.00 0.00
0.00 0.00 0.00 0.01 0.00 0.00 0.00 0.00 0.00 0.00 0.00 0.00 0.00 0.00 0.00 0.00 0.00 0.00 0.00 0.00 0.00 0.00 0.00 0.00 0.00 0.00 0.00 0.00 0.00 0.00 0.00 0.00 0.00 0.00 0.00 0.00 0.00 0.00 0.01 0.01 0.00 0.00 0.00 0.00
0.00 0.00 0.00 0.00 0.00 0.00 0.00 0.00 0.00 0.00 0.00 0.00 0.00 0.00 0.00 0.00 0.00 0.00 0.00 0.00 0.00 0.00 0.00 0.00 0.00 0.00 0.00 0.00 0.00 0.00 0.00 0.00 0.01 0.01 0.01 0.01 0.01 0.01 0.01 0.01 0.01 0.01 0.00 0.00
0.00 0.00 0.00 0.00 0.00 0.00 0.00 0.00 0.00 0.00 0.00 0.00 0.00 0.00 0.00 0.00 0.00 0.00 0.00 0.00 0.00 0.00 0.00 0.00 0.00 0.00 0.00 0.00 0.01 0.01 0.01 0.01 0.01 0.02 0.01 0.01 0.01 0.01 0.02 0.02 0.01 0.01 0.00 0.00
0.00 0.00 0.00 0.00 0.00 0.00 0.00 0.00 0.00 0.00 0.00 0.00 0.00 0.00 0.00 0.00 0.00 0.00 0.00 0.00 0.00 0.00 0.00 0.00 0.00 0.00 0.01 0.01 0.01 0.02 0.02 0.03 0.03 0.03 0.02 0.02 0.02 0.02 0.02 0.02 0.02 0.01 0.00 0.00
0.00 0.00 0.00 0.00 0.00 0.00 0.00 0.00 0.00 0.00 0.00 0.00 0.00 0.00 0.00 0.00 0.00 0.00 0.00 0.00 0.00 0.00 0.00 0.00 0.01 0.01 0.02 0.02 0.02 0.03 0.04 0.04 0.04 0.04 0.04 0.03 0.03 0.02 0.02 0.01 0.01 0.01 0.00 0.00
0.00 0.00 0.00 0.00 0.00 0.00 0.00 0.00 0.00 0.00 0.00 0.00 0.00 0.00 0.00 0.00 0.00 0.00 0.00 0.00 0.00 0.00 0.00 0.00 0.01 0.02 0.03 0.03 0.03 0.04 0.04 0.03 0.03 0.03 0.04 0.04 0.04 0.03 0.03 0.02 0.01 0.01 0.01 0.00
0.00 0.00 0.00 0.00 0.00 0.00 0.00 0.00 0.00 0.00 0.00 0.00 0.00 0.00 0.00 0.00 0.00 0.00 0.00 0.00 0.00 0.00 0.00 0.01 0.02 0.03 0.04 0.04 0.03 0.03 0.03 0.02 0.03 0.03 0.04 0.05 0.05 0.04 0.03 0.02 0.02 0.01 0.01 0.00
0.00 0.00 0.00 0.00 0.00 0.00 0.00 0.00 0.00 0.00 0.00 0.00 0.00 0.00 0.00 0.00 0.00 0.00 0.00 0.00 0.00 0.01 0.01 0.01 0.02 0.03 0.04 0.04 0.04 0.03 0.03 0.03 0.03 0.03 0.03 0.04 0.04 0.04 0.03 0.02 0.02 0.02 0.01 0.00
0.00 0.00 0.00 0.00 0.00 0.00 0.00 0.00 0.00 0.00 0.00 0.00 0.00 0.00 0.00 0.00 0.00 0.00 0.00 0.00 0.01 0.01 0.02 0.02 0.02 0.03 0.04 0.04 0.04 0.04 0.03 0.03 0.03 0.03 0.03 0.04 0.04 0.04 0.03 0.02 0.02 0.02 0.01 0.01
0.00 0.00 0.00 0.00 0.00 0.00 0.00 0.00 0.00 0.00 0.00 0.00 0.00 0.00 0.00 0.00 0.00 0.00 0.00 0.00 0.01 0.02 0.03 0.03 0.03 0.03 0.03 0.03 0.04 0.04 0.03 0.03 0.03 0.04 0.04 0.04 0.04 0.04 0.03 0.02 0.02 0.01 0.01 0.01
0.00 0.00 0.00 0.00 0.00 0.00 0.00 0.00 0.00 0.00 0.00 0.00 0.00 0.00 0.00 0.00 0.00 0.00 0.00 0.01 0.01 0.02 0.03 0.03 0.03 0.03 0.03 0.03 0.04 0.05 0.05 0.04 0.05 0.05 0.05 0.06 0.06 0.06 0.04 0.02 0.02 0.01 0.01 0.01
0.00 0.00 0.00 0.00 0.00 0.00 0.00 0.00 0.00 0.00 0.00 0.00 0.00 0.00 0.00 0.00 0.00 0.00 0.00 0.01 0.01 0.02 0.03 0.04 0.03 0.03 0.04 0.04 0.05 0.05 0.05 0.05 0.05 0.05 0.06 0.05 0.05 0.06 0.05 0.03 0.02 0.01 0.02 0.01
0.00 0.00 0.00 0.00 0.00 0.00 0.00 0.00 0.00 0.00 0.00 0.00 0.00 0.00 0.00 0.00 0.00 0.00 0.00 0.01 0.01 0.02 0.03 0.03 0.04 0.04 0.04 0.05 0.05 0.05 0.05 0.05 0.05 0.06 0.06 0.04 0.04 0.04 0.04 0.03 0.02 0.02 0.02 0.02
0.00 0.00 0.00 0.00 0.00 0.00 0.00 0.00 0.00 0.00 0.00 0.00 0.00 0.00 0.00 0.00 0.00 0.00 0.00 0.01 0.01 0.02 0.03 0.04 0.04 0.04 0.05 0.06 0.06 0.05 0.04 0.04 0.03 0.04 0.05 0.03 0.02 0.02 0.03 0.03 0.02 0.01 0.01 0.01
0.00 0.00 0.00 0.00 0.00 0.00 0.00 0.00 0.00 0.00 0.00 0.00 0.00 0.00 0.00 0.00 0.00 0.00 0.00 0.01 0.01 0.02 0.03 0.05 0.05 0.04 0.05 0.06 0.05 0.04 0.04 0.05 0.05 0.04 0.04 0.03 0.03 0.02 0.02 0.02 0.01 0.01 0.01 0.01
0.00 0.00 0.00 0.00 0.00 0.00 0.00 0.00 0.00 0.00 0.00 0.00 0.00 0.00 0.00 0.00 0.00 0.00 0.00 0.01 0.01 0.02 0.03 0.04 0.05 0.04 0.04 0.05 0.05 0.04 0.05 0.04 0.04 0.05 0.05 0.03 0.03 0.02 0.01 0.01 0.01 0.01 0.01 0.01
0.00 0.00 0.00 0.00 0.00 0.00 0.00 0.00 0.00 0.00 0.00 0.00 0.00 0.00 0.00 0.00 0.00 0.00 0.00 0.00 0.01 0.01 0.02 0.03 0.03 0.04 0.03 0.03 0.03 0.04 0.05 0.05 0.03 0.04 0.04 0.03 0.02 0.01 0.01 0.01 0.02 0.01 0.01 0.01
0.00 0.00 0.00 0.00 0.00 0.00 0.00 0.00 0.00 0.00 0.00 0.00 0.00 0.00 0.00 0.00 0.00 0.00 0.00 0.01 0.01 0.02 0.02 0.02 0.03 0.03 0.02 0.03 0.03 0.03 0.04 0.05 0.04 0.04 0.03 0.02 0.01 0.01 0.01 0.01 0.02 0.02 0.01 0.01
0.00 0.00 0.00 0.00 0.00 0.00 0.00 0.00 0.00 0.00 0.00 0.00 0.00 0.00 0.00 0.00 0.00 0.00 0.00 0.00 0.01 0.02 0.02 0.02 0.02 0.02 0.02 0.02 0.03 0.03 0.03 0.04 0.04 0.03 0.02 0.02 0.01 0.01 0.01 0.01 0.01 0.02 0.02 0.02
0.00 0.00 0.00 0.00 0.00 0.00 0.00 0.00 0.00 0.00 0.00 0.00 0.00 0.00 0.00 0.00 0.00 0.00 0.00 0.01 0.01 0.01 0.02 0.03 0.02 0.01 0.01 0.02 0.02 0.03 0.03 0.03 0.03 0.03 0.02 0.02 0.01 0.01 0.01 0.01 0.01 0.01 0.02 0.03
0.00 0.00 0.00 0.00 0.00 0.00 0.00 0.00 0.00 0.00 0.00 0.00 0.00 0.00 0.00 0.00 0.00 0.00 0.00 0.01 0.01 0.02 0.02 0.01 0.01 0.01 0.01 0.01 0.01 0.02 0.03 0.02 0.02 0.02 0.02 0.01 0.01 0.01 0.01 0.01 0.01 0.01 0.01 0.01
0.00 0.00 0.00 0.00 0.00 0.00 0.00 0.00 0.00 0.00 0.00 0.00 0.00 0.00 0.00 0.00 0.00 0.00 0.00 0.01 0.01 0.02 0.01 0.01 0.01 0.01 0.01 0.01 0.01 0.01 0.02 0.02 0.01 0.01 0.01 0.01 0.01 0.01 0.01 0.01 0.01 0.01 0.01 0.01
0.00 0.00 0.00 0.00 0.00 0.00 0.00 0.00 0.00 0.00 0.00 0.00 0.00 0.00 0.00 0.00 0.00 0.00 0.00 0.01 0.02 0.02 0.01 0.01 0.01 0.01 0.01 0.00 0.01 0.01 0.01 0.02 0.01 0.01 0.01 0.01 0.01 0.01 0.01 0.01 0.01 0.02 0.01 0.01
0.00 0.00 0.00 0.00 0.00 0.00 0.00 0.00 0.00 0.00 0.00 0.00 0.00 0.00 0.00 0.00 0.00 0.00 0.00 0.01 0.01 0.02 0.01 0.01 0.01 0.01 0.01 0.00 0.00 0.01 0.01 0.01 0.01 0.01 0.00 0.00 0.01 0.01 0.01 0.02 0.02 0.01 0.01 0.01
0.00 0.00 0.00 0.00 0.00 0.00 0.00 0.00 0.00 0.00 0.00 0.00 0.00 0.00 0.00 0.00 0.00 0.00 0.00 0.00 0.01 0.01 0.01 0.01 0.01 0.01 0.01 0.01 0.01 0.01 0.00 0.01 0.01 0.01 0.00 0.00 0.00 0.00 0.01 0.01 0.02 0.02 0.02 0.02
0.00 0.00 0.00 0.00 0.00 0.00 0.00 0.00 0.00 0.00 0.00 0.00 0.00 0.00 0.00 0.00 0.00 0.00 0.00 0.00 0.00 0.01 0.01 0.01 0.01 0.01 0.01 0.01 0.00 0.01 0.01 0.00 0.01 0.01 0.01 0.01 0.01 0.01 0.01 0.01 0.02 0.02 0.02 0.02
MSLP
1015.61 1016.09 1016.52 1016.89 1017.18 1017.39 1017.50 1017.50 1017.40 1017.19 1016.89 1016.54 1016.14 1015.72 1015.32 1014.94 1014.58 1014.24 1013.90 1013.54 1013.15 1012.71 1012.22 1011.67 1011.07 1010.45 1009.81 1009.17 1008.56 1007.98 1007.46 1007.00 1006.60 1006.28 1006.03 1005.87 1005.80 1005.80 1005.87 1006.01 1006.19 1006.40 1006.62 1006.84
1016.18 1016.61 1016.94 1017.17 1017.30 1017.35 1017.31 1017.21 1017.04 1016.83 1016.58 1016.30 1016.00 1015.69 1015.38 1015.06 1014.73 1014.38 1014.00 1013.59 1013.13 1012.63 1012.09 1011.51 1010.89 1010.25 1009.60 1008.94 1008.30 1007.67 1007.08 1006.54 1006.06 1005.66 1005.35 1005.13 1005.02 1005.01 1005.08 1005.23 1005.43 1005.66 1005.89 1006.12
1016.68 1017.03 1017.25 1017.35 1017.35 1017.26 1017.12 1016.94 1016.74 1016.53 1016.32 1016.11 1015.89 1015.66 1015.40 1015.12 1014.79 1014.41 1013.98 1013.51 1012.98 1012.42 1011.82 1011.21 1010.57 1009.92 1009.26 1008.59 1007.93 1007.27 1006.63 1006.04 1005.50 1005.04 1004.68 1004.44 1004.30 1004.28 1004.35 1004.50 1004.71 1004.94 1005.18 1005.40
1017.10 1017.35 1017.46 1017.46 1017.35 1017.17 1016.96 1016.73 1016.51 1016.32 1016.14 1015.98 1015.81 1015.62 1015.39 1015.10 1014.75 1014.32 1013.83 1013.28 1012.69 1012.06 1011.42 1010.77 1010.11 1009.45 1008.79 1008.12 1007.44 1006.77 1006.11 1005.48 1004.92 1004.43 1004.05 1003.79 1003.65 1003.62 1003.70 1003.86 1004.06 1004.29 1004.51 1004.72
1017.42 1017.57 1017.58 1017.48 1017.30 1017.06 1016.81 1016.57 1016.35 1016.17 1016.02 1015.88 1015.74 1015.56 1015.32 1015.01 1014.61 1014.13 1013.57 1012.95 1012.29 1011.60 1010.92 1010.23 1009.56 1008.90 1008.23 1007.56 1006.88 1006.20 1005.54 1004.91 1004.33 1003.84 1003.46 1003.20 1003.07 1003.06 1003.15 1003.31 1003.51 1003.73 1003.93 1004.11
1017.61 1017.64 1017.57 1017.40 1017.18 1016.92 1016.66 1016.43 1016.23 1016.06 1015.93 1015.81 1015.66 1015.47 1015.21 1014.85 1014.40 1013.86 1013.23 1012.55 1011.83 1011.10 1010.38 1009.67 1008.99 1008.31 1007.65 1006.98 1006.30 1005.63 1004.97 1004.35 1003.79 1003.31 1002.94 1002.70 1002.58 1002.59 1002.68 1002.85 1003.04 1003.25 1003.43 1003.58
1017.60 1017.55 1017.41 1017.21 1016.98 1016.73 1016.49 1016.28 1016.11 1015.97 1015.85 1015.73 1015.57 1015.35 1015.05 1014.65 1014.15 1013.55 1012.87 1012.14 1011.38 1010.62 1009.87 1009.15 1008.45 1007.77 1007.10 1006.44 1005.77 1005.10 1004.46 1003.85 1003.30 1002.85 1002.50 1002.28 1002.18 1002.19 1002.30 1002.46 1002.65 1002.85 1003.01 1003.14
1017.40 1017.28 1017.11 1016.91 1016.69 1016.48 1016.29 1016.12 1015.98 1015.87 1015.76 1015.63 1015.45 1015.20 1014.86 1014.42 1013.88 1013.24 1012.53 1011.77 1010.99 1010.21 1009.44 1008.71 1008.00 1007.31 1006.64 1005.97 1005.31 1004.65 1004.02 1003.43 1002.90 1002.46 1002.14 1001.93 1001.85 1001.87 1001.97 1002.13 1002.31 1002.49 1002.64 1002.76
1016.99 1016.84 1016.68 1016.51 1016.34 1016.18 1016.05 1015.94 1015.84 1015.75 1015.65 1015.51 1015.31 1015.03 1014.66 1014.19 1013.62 1012.95 1012.23 1011.45 1010.66 1009.87 1009.10 1008.36 1007.64 1006.94 1006.26 1005.59 1004.92 1004.27 1003.65 1003.08 1002.57 1002.15 1001.84 1001.65 1001.57 1001.59 1001.68 1001.83 1002.00 1002.17 1002.31 1002.41
1016.44 1016.30 1016.17 1016.05 1015.95 1015.86 1015.80 1015.74 1015.69 1015.62 1015.52 1015.38 1015.16 1014.86 1014.46 1013.97 1013.38 1012.71 1011.97 1011.20 1010.40 1009.61 1008.83 1008.07 1007.34 1006.62 1005.93 1005.25 1004.58 1003.94 1003.33 1002.77 1002.28 1001.88 1001.59 1001.41 1001.33 1001.34 1001.43 1001.56 1001.72 1001.87 1002.01 1002.11
1015.82 1015.72 1015.64 1015.59 1015.56 1015.56 1015.56 1015.55 1015.54 1015.49 1015.39 1015.24 1015.00 1014.68 1014.27 1013.76 1013.16 1012.49 1011.75 1010.97 1010.18 1009.38 1008.58 1007.81 1007.05 1006.32 1005.60 1004.91 1004.24 1003.61 1003.01 1002.48 1002.02 1001.64 1001.37 1001.20 1001.12 1001.13 1001.20 1001.32 1001.47 1001.62 1001.75 1001.87
1015.21 1015.17 1015.16 1015.19 1015.24 1015.30 1015.36 1015.40 1015.40 1015.36 1015.27 1015.10 1014.85 1014.51 1014.08 1013.56 1012.96 1012.29 1011.55 1010.77 1009.96 1009.14 1008.33 1007.52 1006.74 1005.97 1005.24 1004.53 1003.87 1003.25 1002.68 1002.18 1001.76 1001.42 1001.17 1001.02 1000.96 1000.97 1001.04 1001.15 1001.29 1001.44 1001.58 1001.70
1014.69 1014.71 1014.78 1014.87 1014.99 1015.11 1015.21 1015.27 1015.29 1015.26 1015.15 1014.97 1014.71 1014.35 1013.92 1013.39 1012.79 1012.10 1011.36 1010.57 1009.74 1008.90 1008.04 1007.20 1006.38 1005.58 1004.82 1004.11 1003.45 1002.85 1002.32 1001.87 1001.50 1001.22 1001.02 1000.90 1000.87 1000.89 1000.97 1001.09 1001.23 1001.38 1001.53 1001.66
1014.28 1014.37 1014.50 1014.66 1014.82 1014.98 1015.10 1015.18 1015.21 1015.16 1015.05 1014.85 1014.58 1014.21 1013.77 1013.24 1012.63 1011.95 1011.19 1010.38 1009.53 1008.64 1007.75 1006.86 1005.99 1005.16 1004.38 1003.67 1003.02 1002.46 1001.98 1001.58 1001.28 1001.06 1000.93 1000.87 1000.87 1000.93 1001.03 1001.16 1001.31 1001.46 1001.61 1001.76
1013.99 1014.14 1014.32 1014.52 1014.72 1014.90 1015.03 1015.12 1015.13 1015.08 1014.95 1014.75 1014.46 1014.10 1013.65 1013.12 1012.51 1011.82 1011.06 1010.23 1009.34 1008.42 1007.48 1006.55 1005.64 1004.78 1003.98 1003.26 1002.63 1002.11 1001.68 1001.36 1001.13 1000.99 1000.93 1000.93 1000.99 1001.09 1001.22 1001.37 1001.52 1001.68 1001.84 1001.99
1013.78 1013.97 1014.20 1014.43 1014.65 1014.83 1014.97 1015.04 1015.05 1014.99 1014.85 1014.64 1014.36 1014.00 1013.56 1013.04 1012.44 1011.75 1010.98 1010.13 1009.22 1008.27 1007.29 1006.32 1005.38 1004.49 1003.68 1002.97 1002.36 1001.88 1001.51 1001.25 1001.09 1001.03 1001.04 1001.11 1001.22 1001.36 1001.52 1001.69 1001.85 1002.02 1002.17 1002.31
1013.61 1013.84 1014.09 1014.34 1014.57 1014.75 1014.88 1014.95 1014.95 1014.88 1014.74 1014.53 1014.26 1013.91 1013.50 1013.00 1012.41 1011.73 1010.97 1010.12 1009.20 1008.23 1007.23 1006.24 1005.28 1004.37 1003.56 1002.85 1002.27 1001.81 1001.49 1001.29 1001.19 1001.18 1001.25 1001.37 1001.53 1001.70 1001.89 1002.06 1002.23 1002.39 1002.53 1002.66
1013.42 1013.68 1013.96 1014.22 1014.46 1014.64 1014.76 1014.82 1014.82 1014.74 1014.61 1014.42 1014.16 1013.84 1013.45 1012.98 1012.42 1011.77 1011.03 1010.20 1009.29 1008.32 1007.33 1006.33 1005.36 1004.46 1003.65 1002.95 1002.39 1001.96 1001.66 1001.49 1001.43 1001.46 1001.56 1001.70 1001.88 1002.07 1002.26 1002.44 1002.60 1002.74 1002.86 1002.96
1013.19 1013.49 1013.79 1014.07 1014.31 1014.49 1014.61 1014.67 1014.66 1014.59 1014.47 1014.29 1014.06 1013.76 1013.41 1012.97 1012.45 1011.84 1011.14 1010.35 1009.47 1008.54 1007.57 1006.59 1005.65 1004.76 1003.97 1003.28 1002.73 1002.30 1002.02 1001.85 1001.79 1001.82 1001.92 1002.06 1002.23 1002.41 1002.59 1002.75 1002.89 1003.01 1003.10 1003.17
1012.91 1013.25 1013.58 1013.88 1014.13 1014.32 1014.45 1014.50 1014.50 1014.44 1014.32 1014.16 1013.95 1013.68 1013.36 1012.96 1012.49 1011.93 1011.27 1010.53 1009.71 1008.83 1007.92 1006.99 1006.09 1005.24 1004.47 1003.80 1003.25 1002.83 1002.53 1002.34 1002.26 1002.26 1002.32 1002.43 1002.56 1002.70 1002.84 1002.97 1003.07 1003.16 1003.22 1003.26
1012.60 1012.99 1013.35 1013.68 1013.95 1014.15 1014.28 1014.34 1014.34 1014.29 1014.18 1014.03 1013.83 1013.59 1013.29 1012.93 1012.50 1011.99 1011.40 1010.72 1009.98 1009.17 1008.33 1007.47 1006.63 1005.84 1005.10 1004.46 1003.92 1003.49 1003.17 1002.94 1002.81 1002.75 1002.75 1002.79 1002.86 1002.95 1003.03 1003.11 1003.18 1003.23 1003.26 1003.27
1012.29 1012.72 1013.12 1013.47 1013.77 1013.99 1014.13 1014.20 1014.21 1014.16 1014.06 1013.92 1013.73 1013.50 1013.22 1012.89 1012.50 1012.03 1011.50 1010.90 1010.23 1009.51 1008.75 1007.98 1007.22 1006.50 1005.82 1005.21 1004.68 1004.24 1003.89 1003.62 1003.43 1003.30 1003.22 1003.19 1003.18 1003.19 1003.22 1003.24 1003.27 1003.28 1003.28 1003.26
1011.97 1012.44 1012.88 1013.27 1013.59 1013.84 1014.00 1014.09 1014.11 1014.07 1013.97 1013.83 1013.65 1013.43 1013.16 1012.84 1012.48 1012.06 1011.58 1011.04 1010.45 1009.82 1009.17 1008.49 1007.82 1007.17 1006.56 1006.00 1005.50 1005.06 1004.68 1004.37 1004.12 1003.92 1003.77 1003.65 1003.57 1003.51 1003.47 1003.45 1003.43 1003.41 1003.38 1003.35
1011.63 1012.14 1012.62 1013.05 1013.40 1013.68 1013.87 1013.99 1014.03 1014.00 1013.92 1013.78 1013.60 1013.38 1013.12 1012.82 1012.47 1012.08 1011.65 1011.18 1010.66 1010.12 1009.56 1008.98 1008.41 1007.84 1007.31 1006.80 1006.33 1005.91 1005.53 1005.19 1004.89 1004.64 1004.42 1004.24 1004.09 1003.97 1003.88 1003.80 1003.75 1003.70 1003.66 1003.62
1011.23 1011.78 1012.29 1012.76 1013.15 1013.47 1013.71 1013.86 1013.93 1013.94 1013.88 1013.76 1013.59 1013.38 1013.12 1012.83 1012.50 1012.14 1011.75 1011.32 1010.88 1010.41 1009.94 1009.45 1008.97 1008.50 1008.04 1007.60 1007.18 1006.78 1006.41 1006.07 1005.75 1005.47 1005.21 1004.98 1004.79 1004.62 1004.49 1004.38 1004.30 1004.24 1004.19 1004.14
1010.72 1011.29 1011.84 1012.35 1012.80 1013.17 1013.46 1013.67 1013.80 1013.85 1013.83 1013.75 1013.60 1013.41 1013.17 1012.89 1012.59 1012.25 1011.89 1011.51 1011.12 1010.73 1010.33 1009.92 1009.53 1009.14 1008.76 1008.39 1008.03 1007.68 1007.34 1007.01 1006.70 1006.41 1006.14 1005.89 1005.67 1005.49 1005.33 1005.20 1005.10 1005.03 1004.97 1004.93
1010.04 1010.64 1011.22 1011.78 1012.28 1012.72 1013.09 1013.37 1013.58 1013.70 1013.74 1013.71 1013.62 1013.46 1013.26 1013.01 1012.73 1012.42 1012.10 1011.76 1011.42 1011.08 1010.74 1010.41 1010.09 1009.78 1009.47 1009.17 1008.88 1008.58 1008.29 1008.00 1007.72 1007.45 1007.19 1006.95 1006.73 1006.54 1006.38 1006.24 1006.14 1006.05 1005.99 1005.94
Thickness
5692 5695 5691 5683 5679 5676 5668 5662 5649 5649 5646 5644 5640 5635 5631 5627 5623 5618 5613 5607 5602 5596 5590 5585 5581 5577 5572 5568 5565 5561 5557 5554 5553 5552 5551 5550 5549 5548 5548 5549 5550 5551 5553 5555
5686 5688 5683 5675 5673 5671 5666 5661 5653 5647 5641 5643 5636 5629 5622 5617 5612 5606 5601 5596 5591 5585 5579 5573 5567 5562 5557 5553 5548 5544 5541 5540 5539 5537 5536 5535 5534 5535 5535 5537 5538 5540 5542 5544
5672 5679 5676 5661 5666 5665 5661 5657 5648 5636 5634 5633 5626 5620 5614 5609 5603 5595 5591 5586 5580 5574 5567 5561 5554 5548 5542 5538 5534 5530 5527 5525 5524 5522 5522 5522 5523 5523 5524 5525 5527 5530 5533 5536
5667 5669 5659 5663 5674 5669 5659 5653 5648 5639 5631 5624 5617 5614 5607 5601 5594 5588 5582 5577 5571 5565 5558 5551 5544 5538 5531 5526 5520 5517 5514 5512 5510 5509 5509 5510 5510 5511 5513 5515 5518 5521 5525 5529
5658 5658 5659 5666 5669 5662 5649 5642 5643 5633 5626 5620 5615 5607 5603 5598 5590 5581 5575 5568 5561 5555 5548 5542 5535 5528 5521 5516 5511 5507 5504 5501 5499 5498 5498 5498 5500 5501 5503 5506 5509 5513 5517 5521
5658 5657 5651 5660 5668 5664 5650 5635 5637 5629 5620 5613 5604 5593 5593 5591 5581 5574 5567 5561 5554 5548 5541 5534 5527 5519 5512 5508 5503 5499 5496 5493 5491 5489 5488 5489 5490 5492 5495 5497 5502 5506 5511 5515
5654 5652 5653 5665 5665 5656 5633 5628 5633 5625 5615 5606 5594 5586 5586 5581 5574 5568 5562 5556 5549 5542 5535 5528 5521 5512 5506 5501 5497 5493 5489 5486 5484 5482 5481 5482 5483 5485 5488 5491 5495 5500 5504 5509
5648 5647 5650 5667 5659 5644 5636 5635 5628 5620 5612 5602 5593 5586 5581 5575 5569 5564 5558 5552 5545 5538 5531 5524 5516 5508 5502 5497 5492 5488 5484 5482 5480 5478 5477 5479 5479 5480 5483 5486 5490 5494 5498 5502
5658 5657 5665 5664 5659 5652 5641 5632 5625 5616 5608 5598 5589 5582 5576 5571 5566 5561 5555 5549 5542 5535 5529 5522 5514 5506 5500 5495 5490 5485 5481 5479 5477 5476 5475 5475 5475 5477 5480 5482 5485 5489 5493 5498
5663 5665 5666 5662 5657 5650 5641 5631 5623 5613 5604 5595 5586 5579 5572 5568 5563 5558 5553 5547 5541 5534 5528 5522 5515 5507 5500 5494 5489 5484 5481 5478 5476 5475 5474 5474 5474 5476 5477 5480 5483 5487 5491 5495
5663 5665 5664 5660 5653 5646 5638 5629 5620 5610 5602 5593 5585 5577 5571 5565 5561 5556 5551 5545 5539 5533 5527 5521 5515 5509 5502 5496 5490 5485 5482 5479 5477 5475 5474 5474 5474 5475 5477 5480 5483 5486 5491 5494
5664 5667 5657 5654 5651 5644 5635 5626 5617 5608 5600 5591 5583 5575 5569 5563 5559 5554 5550 5545 5540 5534 5528 5523 5517 5511 5505 5498 5493 5488 5484 5481 5478 5476 5475 5475 5475 5476 5478 5480 5483 5486 5489 5493
5675 5670 5660 5656 5650 5642 5633 5624 5615 5606 5597 5588 5582 5574 5568 5562 5558 5554 5550 5546 5540 5535 5530 5526 5520 5515 5509 5502 5497 5492 5487 5484 5481 5479 5477 5476 5477 5478 5480 5482 5484 5487 5489 5492
5676 5669 5661 5654 5646 5639 5630 5622 5612 5603 5594 5586 5580 5574 5567 5562 5558 5555 5551 5546 5542 5537 5533 5528 5524 5519 5513 5507 5502 5497 5492 5489 5486 5483 5480 5479 5479 5480 5482 5485 5487 5489 5489 5491
5674 5668 5659 5652 5644 5636 5627 5618 5609 5600 5593 5587 5580 5573 5567 5562 5558 5555 5552 5548 5544 5541 5537 5533 5528 5523 5518 5513 5508 5502 5498 5495 5492 5489 5486 5484 5484 5484 5486 5487 5489 5490 5490 5491
5670 5663 5656 5648 5640 5632 5624 5616 5607 5599 5592 5585 5579 5573 5567 5562 5558 5555 5552 5549 5546 5543 5540 5536 5532 5528 5523 5519 5514 5509 5505 5503 5500 5496 5492 5491 5490 5489 5490 5490 5491 5492 5493 5493
5665 5658 5652 5644 5637 5630 5622 5614 5605 5598 5590 5584 5578 5572 5567 5563 5560 5557 5554 5551 5548 5545 5542 5539 5536 5533 5530 5526 5521 5517 5513 5509 5507 5503 5499 5497 5496 5495 5495 5495 5495 5495 5496 5496
5671 5663 5654 5645 5635 5627 5621 5614 5605 5597 5590 5583 5577 5571 5566 5562 5559 5556 5554 5553 5552 5551 5548 5543 5540 5538 5536 5532 5529 5525 5521 5516 5512 5509 5506 5504 5501 5500 5500 5500 5500 5500 5500 5500
5667 5659 5651 5644 5636 5627 5619 5612 5604 5596 5590 5582 5576 5570 5565 5561 5558 5555 5554 5553 5553 5552 5550 5547 5544 5543 5541 5539 5537 5532 5529 5525 5520 5516 5513 5510 5508 5507 5506 5505 5505 5505 5505 5504
5662 5656 5648 5641 5634 5625 5618 5610 5603 5596 5588 5581 5575 5569 5565 5562 5559 5556 5554 5553 5550 5547 5547 5546 5547 5546 5545 5544 5542 5539 5535 5532 5528 5524 5520 5517 5515 5513 5512 5511 5511 5510 5510 5510
5658 5651 5645 5637 5630 5624 5616 5609 5601 5594 5587 5580 5574 5568 5564 5561 5559 5556 5554 5554 5552 5550 5549 5549 5549 5548 5547 5546 5546 5544 5541 5538 5534 5531 5527 5524 5522 5520 5519 5518 5517 5517 5516 5517
5653 5647 5641 5633 5626 5619 5612 5605 5598 5592 5585 5579 5573 5568 5564 5561 5558 5556 5554 5551 5550 5548 5549 5550 5549 5548 5548 5549 5548 5547 5545 5543 5539 5536 5534 5531 5529 5527 5526 5525 5524 5524 5524 5525
5649 5642 5636 5629 5622 5615 5609 5602 5595 5589 5583 5577 5571 5566 5562 5559 5556 5554 5553 5551 5549 5548 5549 5548 5547 5548 5550 5551 5550 5549 5547 5546 5543 5540 5538 5536 5534 5532 5531 5531 5530 5530 5530 5531
5643 5637 5630 5624 5616 5610 5604 5599 5592 5586 5580 5575 5569 5564 5560 5557 5555 5552 5549 5548 5548 5548 5548 5547 5547 5548 5550 5551 5550 5549 5548 5546 5545 5543 5542 5541 5539 5537 5536 5535 5535 5535 5536 5537
5640 5633 5625 5618 5611 5607 5601 5595 5588 5582 5577 5572 5567 5563 5558 5555 5551 5550 5548 5548 5547 5547 5547 5547 5546 5547 5548 5548 5548 5548 5547 5546 5545 5545 5544 5543 5542 5541 5540 5539 5539 5539 5540 5541
5634 5628 5623 5617 5610 5604 5597 5590 5584 5579 5573 5569 5564 5560 5556 5553 5550 5548 5547 5546 5545 5544 5544 5544 5544 5544 5544 5544 5544 5544 5544 5545 5545 5544 5544 5544 5543 5542 5541 5541 5541 5541 5541 5542
5628 5622 5616 5610 5604 5599 5593 5586 5581 5576 5570 5565 5561 5556 5552 5550 5547 5545 5544 5542 5541 5541 5540 5539 5539 5538 5538 5538 5539 5539 5539 5540 5540 5541 5542 5541 5541 5541 5541 5541 5541 5541 5541 5542